Weather History for Paducah, KY

Change the Weather History Date:

Wednesday, January 2, 2013

  Actual Average Record
Temperature  
Mean Temperature 25 °F 35 °F  
Max Temperature 33 °F 43 °F 70 °F (2000)
Min Temperature 17 °F 26 °F 5 °F (1979)
Degree Days  
Heating Degree Days 40 30  
Month to date heating degree days 75 60  
Since 1 July heating degree days 1602 1691  
Cooling Degree Days 0 0  
Month to date cooling degree days 0 0  
Year to date cooling degree days 0 0  
Moisture  
Dew Point 15 °F    
Average Humidity 65    
Maximum Humidity 84    
Minimum Humidity 45    
Precipitation  
Precipitation 0.00 in 0.12 in 2.10 in (2000)
Month to date precipitation T 0.24  
Year to date precipitation T 0.24  
Snow  
Snow 0.00 in 0.10 in 1.10 in (1996)
Month to date snowfall T 0.2  
Since 1 July snowfall 5.7 2.5  
Snow Depth 0.00 in    
Sea Level Pressure  
Sea Level Pressure 30.27 in    
Wind  
Wind Speed 2 mph (North)    
Max Wind Speed 9 mph    
Max Gust Speed 10 mph    
Visibility 10 miles    
Events      
T = Trace of Precipitation, MM = Missing Value Source: NWS Daily Summary

Daily Weather History Graph

Daily Weather History Graph

Search for Another Location

Airport:

Trip Planner

Search our weather history database for the weather conditions in past years. The results will help you decide how hot, cold, wet, or windy it might be!

Date:

Astronomy

Jan. 02, 2013 Rise Set
Actual Time 7:08 AM CST 4:50 PM CST
Civil Twilight 6:39 AM CST 5:18 PM CST
Nautical Twilight 6:07 AM CST 5:51 PM CST
Astronomical Twilight 5:35 AM CST 6:22 PM CST
Moon 10:13 PM CST (1/2) 9:58 AM CST (1/2)
Length of Visible Light 10h 39m
Length of Day
9h 41m
Waning Gibbous, 75% of the Moon is Illuminated
Jan 2
Waning Gibbous
Jan 4
Last Quarter
Jan 11
New
Jan 18
First Quarter
Jan 26
Full

Hourly Weather History & Observations

Time (CST) Temp. Windchill Dew Point Humidity Pressure Visibility Wind Dir Wind Speed Gust Speed Precip Events Conditions
12:53 AM 21.9 °F 13.4 °F 17.1 °F 82% 30.25 in 8.0 mi North 6.9 mph - N/A   Clear
1:53 AM 19.9 °F 12.1 °F 16.0 °F 85% 30.25 in 7.0 mi North 5.8 mph - N/A   Clear
2:53 AM 19.4 °F 11.5 °F 15.8 °F 86% 30.25 in 9.0 mi North 5.8 mph - N/A   Clear
3:53 AM 19.0 °F 12.3 °F 14.0 °F 81% 30.27 in 10.0 mi North 4.6 mph - N/A   Clear
4:53 AM 18.0 °F 9.8 °F 12.9 °F 81% 30.26 in 10.0 mi North 5.8 mph - N/A   Clear
5:53 AM 17.6 °F 12.3 °F 12.2 °F 79% 30.27 in 10.0 mi North 3.5 mph - N/A   Clear
6:53 AM 17.1 °F 10.0 °F 12.0 °F 81% 30.29 in 10.0 mi NNE 4.6 mph - N/A   Clear
7:53 AM 18.0 °F 11.1 °F 12.0 °F 78% 30.30 in 10.0 mi NNE 4.6 mph - N/A   Clear
8:53 AM 21.0 °F 13.4 °F 14.0 °F 74% 30.31 in 10.0 mi NNE 5.8 mph - N/A   Clear
9:53 AM 23.0 °F 17.0 °F 14.0 °F 68% 30.32 in 10.0 mi NNE 4.6 mph - N/A   Clear
10:53 AM 26.1 °F - 12.9 °F 58% 30.31 in 10.0 mi Calm Calm - N/A   Clear
11:53 AM 27.0 °F - 12.9 °F 56% 30.28 in 10.0 mi Calm Calm - N/A   Clear
12:53 PM 30.0 °F - 14.0 °F 51% 30.26 in 10.0 mi Calm Calm - N/A   Clear
1:53 PM 32.0 °F - 14.0 °F 48% 30.23 in 10.0 mi Calm Calm - N/A   Clear
2:53 PM 32.0 °F - 15.1 °F 50% 30.23 in 10.0 mi Calm Calm - N/A   Clear
3:53 PM 30.9 °F 27.5 °F 16.0 °F 54% 30.25 in 10.0 mi NNE 3.5 mph - N/A   Clear
4:53 PM 28.9 °F 25.2 °F 16.0 °F 58% 30.25 in 10.0 mi North 3.5 mph - N/A   Clear
5:53 PM 28.0 °F - 17.1 °F 63% 30.26 in 10.0 mi Calm Calm - N/A   Clear
6:53 PM 26.1 °F - 18.0 °F 71% 30.27 in 10.0 mi Calm Calm - N/A   Clear
7:53 PM 24.1 °F - 19.9 °F 84% 30.27 in 10.0 mi Calm Calm - N/A   Clear
8:53 PM 24.1 °F - 19.9 °F 84% 30.27 in 10.0 mi Calm Calm - N/A   Clear
9:53 PM 21.9 °F - 18.0 °F 85% 30.28 in 10.0 mi Calm Calm - N/A   Clear
10:53 PM 21.2 °F - 17.6 °F 86% 30.26 in 9.0 mi Calm Calm - N/A   Clear
11:53 PM 19.9 °F - 16.0 °F 85% 30.28 in 9.0 mi Calm Calm - N/A   Clear